• In Belgium
  • List of Countries
  • For 7 days
  • Water Temperature
  • Satellite Maps
  • Weather Map
  • Weather Widgets
  • user-avatar
    Login

    Hourly Weather Antwerp

    Today, 22 February, Thursday

    Time Temperature Precipitation Wind Pressure Humidity
    00:00 -3°C° 0 mm 4 mps 767 mmHg 77%
    01:00 -3°C° 0 mm 4 mps 767 mmHg 77%
    02:00 -3°C° 0 mm 4 mps 767 mmHg 78%
    03:00 -3°C° 0 mm 4 mps 766 mmHg 78%
    04:00 -3°C° 0 mm 4 mps 766 mmHg 77%
    05:00 -3°C° 0 mm 4 mps 766 mmHg 76%
    06:00 -5°C° 0 mm 5 mps 767 mmHg 73%
    07:00 -4°C° 0 mm 5 mps 767 mmHg 68%
    08:00 -2°C° 0 mm 5 mps 767 mmHg 62%
    09:00 -2°C° 0 mm 6 mps 767 mmHg 56%
    10:00 -1°C° 0 mm 6 mps 767 mmHg 52%
    11:00 +2°C° 0 mm 6 mps 767 mmHg 48%
    12:00 +3°C° 0 mm 6 mps 766 mmHg 44%
    13:00 +3°C° 0 mm 6 mps 766 mmHg 44%
    14:00 +3°C° 0 mm 6 mps 766 mmHg 45%
    15:00 +3°C° 0 mm 6 mps 766 mmHg 46%
    16:00 +2°C° 0 mm 6 mps 766 mmHg 50%
    17:00 +1°C° 0 mm 5 mps 766 mmHg 55%
    18:00 -1°C° 0 mm 5 mps 766 mmHg 59%
    19:00 -1°C° 0 mm 5 mps 766 mmHg 62%
    20:00 -1°C° 0 mm 5 mps 766 mmHg 64%
    21:00 -2°C° 0 mm 5 mps 767 mmHg 66%
    22:00 -2°C° 0 mm 5 mps 766 mmHg 66%
    23:00 -4°C° 0 mm 5 mps 766 mmHg 67%

    Tomorrow, 23 February, Friday

    Time Temperature Precipitation Wind Pressure Humidity
    00:00 -3°C° 0 mm 4 mps 766 mmHg 67%
    01:00 -3°C° 0 mm 4 mps 766 mmHg 67%
    02:00 -3°C° 0 mm 4 mps 766 mmHg 67%
    03:00 -3°C° 0 mm 4 mps 766 mmHg 66%
    04:00 -4°C° 0 mm 5 mps 766 mmHg 65%
    05:00 -4°C° 0 mm 5 mps 766 mmHg 64%
    06:00 -4°C° 0 mm 5 mps 766 mmHg 63%
    07:00 -4°C° 0 mm 5 mps 766 mmHg 59%
    08:00 -3°C° 0 mm 6 mps 766 mmHg 54%
    09:00 -2°C° 0 mm 7 mps 766 mmHg 49%
    10:00 -1°C° 0 mm 7 mps 765 mmHg 47%
    11:00 0°C° 0 mm 7 mps 765 mmHg 44%
    12:00 +2°C° 0 mm 7 mps 765 mmHg 41%
    13:00 +2°C° 0 mm 7 mps 765 mmHg 40%
    14:00 +2°C° 0 mm 7 mps 764 mmHg 39%
    15:00 +2°C° 0 mm 7 mps 764 mmHg 39%
    16:00 +1°C° 0 mm 6 mps 764 mmHg 40%
    17:00 -2°C° 0 mm 6 mps 764 mmHg 42%
    18:00 -3°C° 0 mm 6 mps 764 mmHg 44%
    19:00 -3°C° 0 mm 6 mps 764 mmHg 43%
    20:00 -3°C° 0 mm 6 mps 765 mmHg 42%
    21:00 -4°C° 0 mm 6 mps 765 mmHg 40%
    22:00 -4°C° 0 mm 6 mps 765 mmHg 40%
    23:00 -4°C° 0 mm 6 mps 765 mmHg 39%

    Day after tomorrow, 24 February, Saturday

    Time Temperature Precipitation Wind Pressure Humidity
    00:00 -5°C° 0 mm 5 mps 765 mmHg 39%
    01:00 -5°C° 0 mm 6 mps 765 mmHg 39%
    02:00 -5°C° 0 mm 6 mps 765 mmHg 39%
    03:00 -5°C° 0 mm 6 mps 765 mmHg 39%
    04:00 -5°C° 0 mm 6 mps 765 mmHg 38%
    05:00 -5°C° 0 mm 6 mps 765 mmHg 37%
    06:00 -5°C° 0 mm 6 mps 765 mmHg 36%
    07:00 -4°C° 0 mm 7 mps 765 mmHg 33%
    08:00 -3°C° 0 mm 7 mps 765 mmHg 30%
    09:00 -2°C° 0 mm 8 mps 765 mmHg 27%
    10:00 -1°C° 0 mm 8 mps 765 mmHg 26%
    11:00 0°C° 0 mm 8 mps 765 mmHg 26%
    12:00 +1°C° 0 mm 8 mps 765 mmHg 25%
    13:00 +2°C° 0 mm 8 mps 765 mmHg 29%
    14:00 +2°C° 0 mm 8 mps 765 mmHg 32%
    15:00 +2°C° 0 mm 8 mps 764 mmHg 36%
    16:00 +1°C° 0 mm 8 mps 765 mmHg 41%
    17:00 0°C° 0 mm 8 mps 765 mmHg 47%
    18:00 -2°C° 0 mm 7 mps 766 mmHg 52%
    19:00 -2°C° 0 mm 7 mps 766 mmHg 50%
    20:00 -3°C° 0 mm 7 mps 767 mmHg 48%
    21:00 -3°C° 0 mm 7 mps 767 mmHg 46%
    22:00 -4°C° 0 mm 7 mps 767 mmHg 46%
    23:00 -4°C° 0 mm 7 mps 767 mmHg 46%

    25 February, Sunday

    Time Temperature Precipitation Wind Pressure Humidity
    00:00 -6°C° 0 mm 7 mps 768 mmHg 46%
    01:00 -6°C° 0 mm 7 mps 768 mmHg 46%
    02:00 -6°C° 0 mm 7 mps 768 mmHg 46%
    03:00 -6°C° 0 mm 7 mps 768 mmHg 46%
    04:00 -6°C° 0 mm 7 mps 768 mmHg 44%
    05:00 -7°C° 0 mm 7 mps 768 mmHg 43%
    06:00 -7°C° 0 mm 7 mps 768 mmHg 41%
    07:00 -6°C° 0 mm 7 mps 768 mmHg 37%
    08:00 -6°C° 0 mm 7 mps 769 mmHg 33%
    09:00 -5°C° 0 mm 8 mps 769 mmHg 29%
    10:00 -4°C° 0 mm 8 mps 769 mmHg 26%
    11:00 -2°C° 0 mm 8 mps 769 mmHg 23%
    12:00 -1°C° 0 mm 8 mps 769 mmHg 21%
    13:00 -1°C° 0 mm 7 mps 769 mmHg 22%
    14:00 -1°C° 0 mm 7 mps 769 mmHg 23%
    15:00 -1°C° 0 mm 7 mps 769 mmHg 24%
    16:00 -2°C° 0 mm 7 mps 769 mmHg 27%
    17:00 -3°C° 0 mm 6 mps 769 mmHg 30%
    18:00 -5°C° 0 mm 6 mps 770 mmHg 33%
    19:00 -5°C° 0 mm 6 mps 770 mmHg 36%
    20:00 -5°C° 0 mm 6 mps 770 mmHg 38%
    21:00 -5°C° 0 mm 6 mps 771 mmHg 40%
    22:00 -6°C° 0 mm 5 mps 771 mmHg 42%
    23:00 -6°C° 0 mm 5 mps 771 mmHg 43%

    26 February, Monday

    Time Temperature Precipitation Wind Pressure Humidity
    00:00 -6°C° 0 mm 5 mps 771 mmHg 45%
    01:00 -6°C° 0 mm 5 mps 771 mmHg 47%
    02:00 -6°C° 0 mm 5 mps 770 mmHg 50%
    03:00 -6°C° 0 mm 5 mps 770 mmHg 52%
    04:00 -6°C° 0 mm 5 mps 770 mmHg 55%
    05:00 -7°C° 0 mm 5 mps 770 mmHg 58%
    06:00 -7°C° 0 mm 5 mps 770 mmHg 60%
    07:00 -6°C° 0 mm 5 mps 770 mmHg 55%
    08:00 -6°C° 0 mm 6 mps 770 mmHg 50%
    09:00 -5°C° 0 mm 6 mps 770 mmHg 45%
    10:00 -4°C° 0 mm 7 mps 770 mmHg 42%
    11:00 -4°C° 0 mm 7 mps 770 mmHg 39%
    12:00 -3°C° 0 mm 7 mps 769 mmHg 36%
    13:00 -3°C° 0 mm 7 mps 769 mmHg 35%
    14:00 -3°C° 0 mm 7 mps 768 mmHg 35%
    15:00 -3°C° 0 mm 7 mps 768 mmHg 35%
    16:00 -4°C° 0 mm 6 mps 768 mmHg 38%
    17:00 -5°C° 0 mm 5 mps 768 mmHg 41%
    18:00 -5°C° 0 mm 4 mps 768 mmHg 44%
    19:00 -5°C° 0 mm 4 mps 768 mmHg 45%
    20:00 -5°C° 0 mm 4 mps 768 mmHg 46%
    21:00 -5°C° 0 mm 4 mps 768 mmHg 48%
    22:00 -7°C° 0 mm 4 mps 767 mmHg 49%
    23:00 -7°C° 0 mm 4 mps 767 mmHg 51%

    27 February, Tuesday

    Time Temperature Precipitation Wind Pressure Humidity
    00:00 -7°C° 0 mm 4 mps 767 mmHg 52%
    01:00 -7°C° 0 mm 4 mps 767 mmHg 51%
    02:00 -7°C° 0 mm 4 mps 767 mmHg 50%
    03:00 -7°C° 0 mm 4 mps 766 mmHg 50%
    04:00 -8°C° 0 mm 4 mps 766 mmHg 48%
    05:00 -8°C° 0 mm 4 mps 766 mmHg 47%
    06:00 -8°C° 0 mm 4 mps 766 mmHg 45%
    07:00 -8°C° 0 mm 5 mps 766 mmHg 42%
    08:00 -7°C° 0 mm 5 mps 766 mmHg 39%
    09:00 -7°C° 0 mm 5 mps 766 mmHg 36%
    10:00 -6°C° 0 mm 5 mps 766 mmHg 34%
    11:00 -5°C° 0 mm 5 mps 766 mmHg 32%
    12:00 -4°C° 0 mm 5 mps 765 mmHg 31%
    13:00 -4°C° 0 mm 5 mps 765 mmHg 31%
    14:00 -4°C° 0 mm 5 mps 765 mmHg 31%
    15:00 -2°C° 0 mm 5 mps 764 mmHg 31%
    16:00 -3°C° 0 mm 4 mps 764 mmHg 34%
    17:00 -4°C° 0 mm 4 mps 765 mmHg 38%
    18:00 -5°C° 0 mm 3 mps 765 mmHg 41%
    19:00 -5°C° 0 mm 3 mps 765 mmHg 42%
    20:00 -5°C° 0 mm 3 mps 765 mmHg 43%
    21:00 -6°C° 0 mm 3 mps 765 mmHg 44%
    22:00 -6°C° 0 mm 3 mps 765 mmHg 42%
    23:00 -6°C° 0 mm 3 mps 765 mmHg 40%
    Show more